EW6193 Weather Reports


time (UTC)temp
F
wind
direction
speed
knots
gust
knots
rain 1hr
in
rain 24hr
in
rain mn
in
humidity
%
barometer
mb
20260507084536 63 285 2.6 7.0 0.00 0.10 0.10 85 1011.4
20260507083033 64 272 4.3 11.3 0.00 0.10 0.10 83 1011.5
20260507081540 64 236 4.3 10.4 0.00 0.10 0.10 82 1011.6
20260507080024 64 297 2.6 10.4 0.01 0.10 0.10 80 1011.9
20260507074543 63 271 5.2 11.3 0.02 0.10 0.10 83 1012.2
20260507073021 62 278 0.9 7.0 0.02 0.10 0.10 87 1012.0
20260507071520 62 260 0.9 7.0 0.02 0.10 0.10 88 1012.4
20260507070021 62 276 1.7 8.7 0.04 0.09 0.09 88 1012.5
20260507064518 62 283 0.9 3.5 0.03 0.09 0.09 88 1012.3
20260507063024 62 264 3.5 10.4 0.02 0.08 0.08 87 1012.6
20260507061517 63 263 2.6 7.0 0.03 0.08 0.08 85 1012.7
20260507060015 63 241 0.9 8.7 0.02 0.06 0.06 84 1012.9
20260507054515 63 276 3.5 12.2 0.02 0.06 0.06 84 1012.8
20260507053014 63 310 5.2 12.2 0.02 0.06 0.06 85 1012.6
20260507051513 63 309 5.2 12.2 0.02 0.05 0.05 85 1012.7
20260507050024 63 317 3.5 10.4 0.02 0.04 0.04 83 1012.6
20260507044512 63 290 5.2 11.3 0.02 0.03 0.03 82 1012.5
20260507043020 63 276 6.1 16.5 0.02 0.03 0.03 84 1012.6
20260507041510 62 264 4.3 12.2 0.01 0.02 0.02 86 1012.8
20260507040009 63 276 4.3 11.3 0.02 0.02 0.02 84 1012.8
20260507034508 63 246 4.3 9.6 0.01 0.02 0.02 83 1012.8
20260507033016 63 269 4.3 10.4 0.01 0.02 0.02 85 1013.1
20260507031506 63 273 4.3 11.3 0.01 0.02 0.02 84 1013.4
20260507030005 64 270 4.3 13.9 0.00 0.01 0.01 83 1013.5
20260507024504 64 277 6.1 13.9 0.00 0.01 0.01 83 1013.5
20260507023002 64 216 3.5 10.4 0.00 0.01 0.01 85 1013.6
20260507021602 64 290 3.5 11.3 0.00 0.01 0.01 84 1014.0
20260507020100 65 236 6.1 14.8 0.00 0.01 0.01 81 1014.1
20260507014603 66 255 6.1 10.4 0.00 0.01 0.01 79 1014.3
20260507013054 67 256 6.1 12.2 0.00 0.01 0.01 76 1014.6
20260507011553 67 306 5.2 13.9 0.00 0.01 0.01 74 1014.6
20260507010051 67 241 4.3 12.2 0.00 0.01 0.01 72 1014.9
20260507004548 67 298 4.3 11.3 0.00 0.01 0.01 71 1015.4
20260507003050 68 238 3.5 7.8 0.00 0.01 0.01 71 1016.0
20260507001543 68 328 3.5 7.8 0.00 0.01 0.01 71 1016.2
20260507000140 67 312 2.6 7.8 0.00 0.01 0.01 73 1016.6
20260506234538 67 320 3.5 8.7 0.00 0.01 0.01 72 1016.8
20260506233038 65 245 2.6 7.8 0.00 0.01 0.01 77 1016.9
20260506231529 63 248 1.7 6.1 0.00 0.01 0.01 83 1017.1
20260506230026 61 249 0.0 4.3 0.00 0.01 0.01 86 1017.3
20260506224521 60 282 0.0 1.7 0.00 0.01 0.01 88 1017.3
20260506223017 59 283 0.0 0.9 0.00 0.01 0.01 89 1017.5
20260506221513 58 267 0.0 0.9 0.00 0.01 0.01 91 1017.8
20260506220019 57 254 0.0 0.9 0.00 0.01 0.01 91 1017.8
20260506214509 56 252 0.0 1.7 0.01 0.01 0.01 92 1018.2
20260506213008 55 256 0.0 1.7 0.01 0.01 0.01 92 1018.3
20260506211508 55 261 0.0 1.7 0.01 0.01 0.01 91 1018.6
20260506210009 55 287 0.0 0.9 0.01 0.01 0.01 91 1018.9
20260506204504 56 252 0.0 0.9 0.00 0.00 0.00 91 1018.8
20260506203004 56 248 0.0 0.9 0.00 0.00 0.00 92 1019.0
20260506201600 55 258 0.0 1.7 0.00 0.00 0.00 91 1019.0
20260506200059 55 252 0.9 3.5 0.00 0.00 0.00 91 1019.1
20260506194633 55 255 0.0 1.7 0.00 0.00 0.00 91 1018.9
20260506193106 55 247 0.9 3.5 0.00 0.00 0.00 90 1019.0
20260506191556 56 258 0.0 1.7 0.00 0.00 0.00 90 1019.1
20260506190100 55 239 0.0 0.0 0.00 0.00 0.00 89 1019.1
20260506184554 55 255 0.0 1.7 0.00 0.00 0.00 89 1019.3
20260506183053 55 265 0.0 0.9 0.00 0.00 0.00 88 1019.3
20260506181552 56 265 0.0 0.9 0.00 0.00 0.00 89 1019.3
20260506174549 55 266 0.9 2.6 0.00 0.00 0.00 89 1019.6
20260506173049 54 247 0.0 1.7 0.00 0.00 0.00 88 1019.8
20260506171547 54 261 0.0 0.9 0.00 0.00 0.00 86 1020.0
20260506170055 54 260 0.0 0.0 0.00 0.00 0.00 85 1020.1
20260506164541 55 257 0.0 0.9 0.00 0.00 0.00 84 1020.3
20260506163057 56 299 0.0 0.9 0.00 0.00 0.00 83 1020.5
20260506161536 56 312 0.0 0.0 0.00 0.00 0.00 82 1020.7
20260506160035 56 312 0.0 0.0 0.00 0.00 0.00 80 1020.9
20260506154532 55 312 0.0 0.0 0.00 0.00 0.00 82 1021.1
20260506153030 55 312 0.0 0.9 0.00 0.00 0.00 82 1021.3
20260506151526 54 264 0.0 4.3 0.00 0.00 0.00 86 1021.5
20260506150027 53 250 0.0 0.0 0.00 0.00 0.00 84 1021.6
20260506144524 54 254 0.0 1.7 0.00 0.00 0.00 84 1021.9
20260506143020 54 304 0.0 0.9 0.00 0.00 0.00 84 1022.1
20260506141517 54 268 0.0 0.9 0.00 0.00 0.00 84 1022.4
20260506140017 54 268 0.0 0.9 0.00 0.00 0.00 84 1022.5
20260506134515 54 268 0.0 0.9 0.00 0.00 0.00 85 1022.7
20260506133014 53 270 0.0 1.7 0.00 0.00 0.00 85 1022.7
20260506131514 53 255 0.0 0.0 0.00 0.00 0.00 84 1022.7
20260506130012 53 264 0.0 0.9 0.00 0.00 0.00 84 1022.8
20260506124509 53 245 0.0 0.9 0.00 0.00 0.00 84 1022.9
20260506123008 53 297 0.0 0.9 0.00 0.00 0.00 84 1023.1
20260506121506 54 321 0.0 0.9 0.00 0.00 0.00 83 1023.0
20260506120003 54 245 0.9 2.6 0.00 0.00 0.00 83 1023.0
20260506114504 54 267 0.0 0.9 0.00 0.00 0.00 83 1023.0
20260506113004 53 257 0.0 0.9 0.00 0.00 0.00 84 1023.0
20260506111502 53 262 0.0 1.7 0.00 0.00 0.00 83 1022.9
20260506110001 52 254 0.9 1.7 0.00 0.00 0.00 83 1023.0
20260506104502 53 249 1.7 2.6 0.00 0.00 0.00 83 1023.0
20260506103100 53 248 0.9 2.6 0.00 0.00 0.00 82 1023.0
20260506101606 53 249 1.7 3.5 0.00 0.00 0.00 83 1023.0
20260506100058 53 267 0.9 3.5 0.00 0.00 0.00 84 1023.1
20260506094622 52 259 0.0 0.9 0.00 0.00 0.00 83 1023.1
20260506093057 52 260 0.0 1.7 0.00 0.00 0.00 86 1023.1
20260506091557 51 249 0.0 0.0 0.00 0.00 0.00 82 1023.1
20260506090056 51 249 0.0 0.0 0.00 0.00 0.00 84 1023.1